| time (UTC) | temp C | wind direction | speed KPH | gust KPH | rain 1hr cm | rain 24hr cm | rain mn cm | humidity % | barometer mb |
| 20260508043816 | 16 | 99 | 0.0 | 0.0 | 0.00 | 0.00 | 0.00 | 99 | 1022.4 |
| 20260508043313 | 16 | 99 | 0.0 | 0.0 | 0.00 | 0.00 | 0.00 | 99 | 1022.2 |
| 20260508042810 | 16 | 66 | 0.0 | 1.6 | 0.00 | 0.00 | 0.00 | 99 | 1022.5 |
| 20260508042308 | 16 | 114 | 0.0 | 0.0 | 0.00 | 0.00 | 0.00 | 99 | 1022.4 |
| 20260508041804 | 16 | 114 | 0.0 | 0.0 | 0.00 | 0.00 | 0.00 | 99 | 1022.4 |
| 20260508041301 | 16 | 114 | 0.0 | 0.0 | 0.00 | 0.00 | 0.00 | 99 | 1022.3 |
| 20260508040757 | 16 | 90 | 0.0 | 0.0 | 0.00 | 0.00 | 0.00 | 99 | 1022.4 |
| 20260508040255 | 16 | 20 | 0.0 | 0.0 | 0.00 | 0.00 | 0.00 | 99 | 1022.4 |
| 20260508035752 | 16 | 20 | 0.0 | 0.0 | 0.00 | 0.00 | 0.00 | 99 | 1022.2 |
| 20260508035249 | 16 | 20 | 0.0 | 0.0 | 0.00 | 0.00 | 0.00 | 99 | 1022.5 |
| 20260508034745 | 16 | 20 | 0.0 | 0.0 | 0.00 | 0.00 | 0.00 | 99 | 1022.5 |
| 20260508034243 | 16 | 32 | 0.0 | 3.2 | 0.00 | 0.00 | 0.00 | 99 | 1022.5 |
| 20260508033740 | 16 | 54 | 0.0 | 1.6 | 0.00 | 0.00 | 0.00 | 99 | 1022.4 |
| 20260508033238 | 16 | 90 | 0.0 | 1.6 | 0.00 | 0.00 | 0.00 | 99 | 1022.4 |
| 20260508032735 | 16 | 90 | 0.0 | 0.0 | 0.00 | 0.00 | 0.00 | 99 | 1022.3 |
| 20260508032232 | 16 | 90 | 0.0 | 0.0 | 0.00 | 0.00 | 0.00 | 99 | 1022.2 |
| 20260508031729 | 16 | 90 | 0.0 | 0.0 | 0.00 | 0.00 | 0.00 | 99 | 1022.3 |
| 20260508031225 | 16 | 99 | 0.0 | 0.0 | 0.00 | 0.00 | 0.00 | 99 | 1022.3 |
| 20260508030722 | 16 | 99 | 0.0 | 0.0 | 0.00 | 0.00 | 0.00 | 99 | 1022.1 |
| 20260508030220 | 16 | 99 | 0.0 | 0.0 | 0.00 | 0.00 | 0.00 | 99 | 1022.2 |
| 20260508025716 | 17 | 99 | 0.0 | 0.0 | 0.00 | 0.00 | 0.00 | 99 | 1022.2 |
| 20260508025213 | 17 | 99 | 0.0 | 0.0 | 0.00 | 0.00 | 0.00 | 99 | 1022.2 |
| 20260508024709 | 17 | 90 | 0.0 | 0.0 | 0.00 | 0.00 | 0.00 | 99 | 1022.1 |
| 20260508024206 | 17 | 99 | 0.0 | 0.0 | 0.00 | 0.00 | 0.00 | 99 | 1022.2 |
| 20260508023702 | 17 | 99 | 0.0 | 1.6 | 0.00 | 0.00 | 0.00 | 99 | 1021.9 |
| 20260508023200 | 17 | 99 | 0.0 | 0.0 | 0.00 | 0.00 | 0.00 | 99 | 1021.9 |
| 20260508022655 | 17 | 90 | 0.0 | 0.0 | 0.00 | 0.00 | 0.00 | 99 | 1021.8 |
| 20260508022153 | 17 | 90 | 0.0 | 0.0 | 0.00 | 0.00 | 0.00 | 99 | 1021.6 |
| 20260508021649 | 17 | 90 | 0.0 | 0.0 | 0.00 | 0.00 | 0.00 | 99 | 1021.9 |
| 20260508021144 | 17 | 90 | 0.0 | 0.0 | 0.00 | 0.00 | 0.00 | 99 | 1021.7 |
| 20260508020643 | 17 | 90 | 0.0 | 0.0 | 0.00 | 0.00 | 0.00 | 99 | 1021.7 |
| 20260508020140 | 17 | 90 | 0.0 | 0.0 | 0.00 | 0.00 | 0.00 | 99 | 1021.6 |
| 20260508015637 | 17 | 90 | 0.0 | 0.0 | 0.00 | 0.00 | 0.00 | 99 | 1021.6 |
| 20260508015134 | 17 | 90 | 0.0 | 0.0 | 0.00 | 0.00 | 0.00 | 99 | 1021.8 |
| 20260508014630 | 17 | 90 | 0.0 | 0.0 | 0.00 | 0.00 | 0.00 | 99 | 1021.8 |
| 20260508014126 | 18 | 90 | 0.0 | 0.0 | 0.00 | 0.00 | 0.00 | 99 | 1021.8 |
| 20260508013623 | 18 | 90 | 0.0 | 0.0 | 0.00 | 0.00 | 0.00 | 99 | 1021.7 |
| 20260508013120 | 18 | 90 | 0.0 | 0.0 | 0.00 | 0.00 | 0.00 | 99 | 1021.7 |
| 20260508012617 | 18 | 90 | 0.0 | 0.0 | 0.00 | 0.00 | 0.00 | 99 | 1021.7 |
| 20260508012114 | 18 | 98 | 0.0 | 0.0 | 0.00 | 0.00 | 0.00 | 99 | 1021.4 |
| 20260508011613 | 18 | 105 | 0.0 | 1.6 | 0.00 | 0.00 | 0.00 | 99 | 1021.7 |
| 20260508011110 | 18 | 99 | 0.0 | 1.6 | 0.00 | 0.00 | 0.00 | 99 | 1021.7 |
| 20260508010606 | 18 | 261 | 0.0 | 1.6 | 0.00 | 0.00 | 0.00 | 99 | 1021.6 |
| 20260508010105 | 19 | 151 | 0.0 | 4.8 | 0.00 | 0.00 | 0.00 | 99 | 1021.5 |
| 20260508005601 | 19 | 90 | 1.6 | 1.6 | 0.00 | 0.00 | 0.00 | 99 | 1021.3 |
| 20260508005057 | 19 | 90 | 0.0 | 3.2 | 0.00 | 0.00 | 0.00 | 99 | 1021.6 |
| 20260508004553 | 19 | 90 | 1.6 | 1.6 | 0.00 | 0.00 | 0.00 | 99 | 1021.5 |
| 20260508004050 | 20 | 145 | 0.0 | 4.8 | 0.00 | 0.00 | 0.00 | 99 | 1021.4 |
| 20260508003546 | 20 | 90 | 0.0 | 3.2 | 0.00 | 0.00 | 0.00 | 99 | 1021.4 |
| 20260508003044 | 20 | 140 | 0.0 | 3.2 | 0.00 | 0.00 | 0.00 | 99 | 1021.3 |
| 20260508002540 | 20 | 160 | 0.0 | 4.8 | 0.00 | 0.00 | 0.00 | 99 | 1021.6 |
| 20260508002038 | 20 | 146 | 0.0 | 3.2 | 0.00 | 0.00 | 0.00 | 99 | 1021.6 |
| 20260508001533 | 20 | 148 | 3.2 | 3.2 | 0.00 | 0.00 | 0.00 | 99 | 1021.6 |
| 20260508001029 | 20 | 90 | 0.0 | 3.2 | 0.00 | 0.00 | 0.00 | 99 | 1021.5 |
| 20260508000525 | 21 | 194 | 0.0 | 4.8 | 0.00 | 0.00 | 0.00 | 99 | 1021.7 |
| 20260508000023 | 21 | 140 | 0.0 | 4.8 | 0.00 | 0.00 | 0.00 | 99 | 1021.6 |
| 20260507235519 | 21 | 144 | 0.0 | 3.2 | 0.00 | 0.00 | 0.00 | 99 | 1021.4 |
| 20260507235017 | 22 | 103 | 0.0 | 3.2 | 0.00 | 0.00 | 0.00 | 99 | 1021.5 |
| 20260507234513 | 22 | 120 | 0.0 | 6.4 | 0.00 | 0.00 | 0.00 | 99 | 1021.2 |
| 20260507234010 | 22 | 114 | 1.6 | 4.8 | 0.00 | 0.00 | 0.00 | 99 | 1021.4 |
| 20260507233506 | 22 | 98 | 0.0 | 3.2 | 0.00 | 0.00 | 0.00 | 99 | 1021.6 |
| 20260507233006 | 22 | 103 | 1.6 | 3.2 | 0.00 | 0.00 | 0.00 | 99 | 1021.4 |
| 20260507232501 | 22 | 254 | 0.0 | 1.6 | 0.00 | 0.00 | 0.00 | 99 | 1021.5 |
| 20260507231959 | 22 | 124 | 0.0 | 3.2 | 0.00 | 0.00 | 0.00 | 99 | 1021.2 |
| 20260507231455 | 22 | 99 | 0.0 | 3.2 | 0.00 | 0.00 | 0.00 | 99 | 1021.7 |
| 20260507230952 | 22 | 90 | 0.0 | 3.2 | 0.00 | 0.00 | 0.00 | 99 | 1021.5 |
| 20260507230449 | 22 | 105 | 1.6 | 4.8 | 0.00 | 0.00 | 0.00 | 99 | 1021.6 |
| 20260507225944 | 22 | 114 | 0.0 | 3.2 | 0.00 | 0.00 | 0.00 | 99 | 1021.5 |
| 20260507225440 | 22 | 115 | 3.2 | 3.2 | 0.00 | 0.00 | 0.00 | 99 | 1021.5 |
| 20260507224937 | 22 | 90 | 1.6 | 3.2 | 0.00 | 0.00 | 0.00 | 99 | 1021.6 |
| 20260507224432 | 22 | 90 | 3.2 | 3.2 | 0.00 | 0.00 | 0.00 | 99 | 1021.7 |
| 20260507223930 | 22 | 107 | 0.0 | 3.2 | 0.00 | 0.00 | 0.00 | 99 | 1021.8 |
| 20260507223426 | 22 | 100 | 0.0 | 3.2 | 0.00 | 0.00 | 0.00 | 99 | 1021.7 |
| 20260507222923 | 22 | 90 | 0.0 | 3.2 | 0.00 | 0.00 | 0.00 | 99 | 1022.0 |
| 20260507222420 | 22 | 117 | 1.6 | 3.2 | 0.00 | 0.00 | 0.00 | 99 | 1022.1 |
| 20260507221916 | 22 | 126 | 0.0 | 3.2 | 0.00 | 0.00 | 0.00 | 99 | 1022.0 |
| 20260507221413 | 22 | 124 | 4.8 | 4.8 | 0.00 | 0.00 | 0.00 | 99 | 1021.8 |
| 20260507220908 | 22 | 143 | 0.0 | 3.2 | 0.00 | 0.00 | 0.00 | 99 | 1021.9 |
| 20260507220407 | 22 | 112 | 0.0 | 3.2 | 0.00 | 0.00 | 0.00 | 99 | 1022.0 |
| 20260507215903 | 23 | 120 | 0.0 | 3.2 | 0.00 | 0.00 | 0.00 | 99 | 1021.9 |
| 20260507215400 | 23 | 96 | 0.0 | 4.8 | 0.00 | 0.00 | 0.00 | 99 | 1021.9 |
| 20260507214857 | 23 | 114 | 1.6 | 4.8 | 0.00 | 0.00 | 0.00 | 99 | 1022.1 |
| 20260507214355 | 23 | 125 | 0.0 | 3.2 | 0.00 | 0.00 | 0.00 | 99 | 1022.1 |
| 20260507213850 | 23 | 114 | 0.0 | 3.2 | 0.00 | 0.00 | 0.00 | 99 | 1022.2 |
| 20260507213347 | 23 | 120 | 0.0 | 3.2 | 0.00 | 0.00 | 0.00 | 99 | 1022.1 |
| 20260507212844 | 23 | 84 | 1.6 | 3.2 | 0.00 | 0.00 | 0.00 | 99 | 1022.2 |
| 20260507212340 | 23 | 157 | 1.6 | 3.2 | 0.00 | 0.00 | 0.00 | 99 | 1022.3 |
| 20260507211836 | 24 | 85 | 0.0 | 4.8 | 0.00 | 0.00 | 0.00 | 99 | 1022.5 |
| 20260507211333 | 24 | 111 | 0.0 | 1.6 | 0.00 | 0.00 | 0.00 | 99 | 1022.2 |
| 20260507210830 | 23 | 265 | 3.2 | 4.8 | 0.00 | 0.00 | 0.00 | 99 | 1022.6 |
| 20260507210327 | 24 | 105 | 0.0 | 3.2 | 0.00 | 0.00 | 0.00 | 99 | 1022.4 |
| 20260507205823 | 24 | 77 | 0.0 | 6.4 | 0.00 | 0.00 | 0.00 | 99 | 1022.5 |
| 20260507205321 | 24 | 101 | 3.2 | 6.4 | 0.00 | 0.00 | 0.00 | 99 | 1022.2 |
| 20260507204816 | 24 | 49 | 3.2 | 3.2 | 0.00 | 0.00 | 0.00 | 99 | 1022.4 |
| 20260507204314 | 23 | 0 | 0.0 | 8.0 | 0.00 | 0.00 | 0.00 | 99 | 1022.3 |
| 20260507203812 | 23 | 249 | 0.0 | 4.8 | 0.00 | 0.00 | 0.00 | 99 | 1022.4 |
| 20260507203310 | 23 | 0 | 3.2 | 6.4 | 0.00 | 0.00 | 0.00 | 99 | 1022.5 |
| 20260507202805 | 23 | 248 | 3.2 | 3.2 | 0.00 | 0.00 | 0.00 | 99 | 1022.7 |
| 20260507202306 | 23 | 105 | 0.0 | 3.2 | 0.00 | 0.00 | 0.00 | 99 | 1022.8 |
| 20260507201756 | 23 | 100 | 3.2 | 4.8 | 0.00 | 0.00 | 0.00 | 99 | 1022.8 |
| 20260507201253 | 23 | 52 | 0.0 | 11.3 | 0.00 | 0.00 | 0.00 | 99 | 1022.7 |
| 20260507200750 | 23 | 93 | 6.4 | 8.0 | 0.00 | 0.00 | 0.00 | 99 | 1023.0 |
| 20260507200246 | 23 | 34 | 8.0 | 11.3 | 0.00 | 0.00 | 0.00 | 99 | 1023.0 |
| 20260507195742 | 23 | 36 | 4.8 | 9.7 | 0.00 | 0.00 | 0.00 | 99 | 1023.1 |
| 20260507195239 | 23 | 331 | 0.0 | 4.8 | 0.00 | 0.00 | 0.00 | 99 | 1023.0 |
| 20260507194737 | 23 | 21 | 3.2 | 4.8 | 0.00 | 0.00 | 0.00 | 99 | 1023.2 |
| 20260507194232 | 22 | 28 | 4.8 | 16.1 | 0.00 | 0.00 | 0.00 | 99 | 1023.2 |
| 20260507193729 | 23 | 28 | 6.4 | 11.3 | 0.00 | 0.00 | 0.00 | 99 | 1023.3 |
| 20260507193226 | 22 | 73 | 8.0 | 8.0 | 0.00 | 0.00 | 0.00 | 99 | 1023.3 |
| 20260507192722 | 22 | 0 | 1.6 | 16.1 | 0.00 | 0.00 | 0.00 | 99 | 1023.6 |
| 20260507192219 | 23 | 152 | 3.2 | 6.4 | 0.00 | 0.00 | 0.00 | 99 | 1023.4 |
| 20260507191715 | 22 | 338 | 3.2 | 12.9 | 0.00 | 0.00 | 0.00 | 99 | 1023.6 |
| 20260507191213 | 22 | 114 | 4.8 | 6.4 | 0.00 | 0.00 | 0.00 | 99 | 1023.8 |
| 20260507190709 | 22 | 66 | 11.3 | 11.3 | 0.00 | 0.00 | 0.00 | 99 | 1023.8 |
| 20260507190208 | 22 | 63 | 1.6 | 6.4 | 0.00 | 0.00 | 0.00 | 99 | 1023.6 |
| 20260507185706 | 22 | 106 | 4.8 | 9.7 | 0.00 | 0.00 | 0.00 | 99 | 1023.7 |
| 20260507185202 | 22 | 146 | 3.2 | 11.3 | 0.00 | 0.00 | 0.00 | 99 | 1023.6 |
| 20260507184700 | 21 | 0 | 8.0 | 9.7 | 0.00 | 0.00 | 0.00 | 99 | 1023.8 |
| 20260507184158 | 21 | 54 | 1.6 | 12.9 | 0.00 | 0.00 | 0.00 | 99 | 1024.0 |
| 20260507183654 | 21 | 25 | 9.7 | 9.7 | 0.00 | 0.00 | 0.00 | 99 | 1024.3 |
| 20260507183151 | 21 | 68 | 3.2 | 12.9 | 0.00 | 0.00 | 0.00 | 99 | 1024.0 |
| 20260507182648 | 21 | 168 | 0.0 | 3.2 | 0.00 | 0.00 | 0.00 | 99 | 1024.1 |
| 20260507182143 | 21 | 62 | 0.0 | 16.1 | 0.00 | 0.00 | 0.00 | 99 | 1024.3 |
| 20260507181640 | 21 | 90 | 3.2 | 9.7 | 0.00 | 0.00 | 0.00 | 99 | 1024.2 |
| 20260507181136 | 21 | 120 | 0.0 | 12.9 | 0.00 | 0.00 | 0.00 | 99 | 1024.5 |
| 20260507180633 | 20 | 60 | 4.8 | 11.3 | 0.00 | 0.00 | 0.00 | 99 | 1024.7 |
| 20260507180130 | 21 | 11 | 3.2 | 6.4 | 0.00 | 0.00 | 0.00 | 99 | 1024.4 |
| 20260507175626 | 20 | 299 | 4.8 | 8.0 | 0.00 | 0.00 | 0.00 | 99 | 1024.7 |
| 20260507175123 | 20 | 49 | 8.0 | 12.9 | 0.00 | 0.00 | 0.00 | 99 | 1024.7 |
| 20260507174620 | 20 | 29 | 1.6 | 16.1 | 0.00 | 0.00 | 0.00 | 99 | 1024.8 |
| 20260507174118 | 20 | 58 | 8.0 | 16.1 | 0.00 | 0.00 | 0.00 | 99 | 1025.0 |
| 20260507173615 | 20 | 64 | 4.8 | 9.7 | 0.00 | 0.00 | 0.00 | 99 | 1025.4 |
| 20260507173112 | 20 | 90 | 1.6 | 6.4 | 0.00 | 0.00 | 0.00 | 99 | 1025.2 |
| 20260507172608 | 20 | 105 | 0.0 | 12.9 | 0.00 | 0.00 | 0.00 | 99 | 1025.4 |
| 20260507172106 | 20 | 349 | 3.2 | 4.8 | 0.00 | 0.00 | 0.00 | 99 | 1025.6 |
| 20260507171600 | 20 | 117 | 0.0 | 6.4 | 0.00 | 0.00 | 0.00 | 99 | 1025.8 |
| 20260507171058 | 20 | 28 | 3.2 | 8.0 | 0.00 | 0.00 | 0.00 | 99 | 1026.3 |
| 20260507170555 | 20 | 82 | 1.6 | 9.7 | 0.00 | 0.00 | 0.00 | 99 | 1026.3 |
| 20260507170052 | 19 | 25 | 4.8 | 8.0 | 0.00 | 0.00 | 0.00 | 99 | 1026.4 |
| 20260507165547 | 18 | 114 | 1.6 | 8.0 | 0.00 | 0.00 | 0.00 | 99 | 1026.1 |
| 20260507165044 | 19 | 90 | 4.8 | 8.0 | 0.00 | 0.00 | 0.00 | 99 | 1026.5 |
| 20260507164540 | 18 | 36 | 0.0 | 3.2 | 0.00 | 0.00 | 0.00 | 99 | 1026.3 |
| 20260507164037 | 18 | 0 | 3.2 | 14.5 | 0.00 | 0.00 | 0.00 | 99 | 1026.5 |
| 20260507163535 | 18 | 66 | 6.4 | 11.3 | 0.00 | 0.00 | 0.00 | 99 | 1026.7 |
| 20260507163032 | 18 | 32 | 4.8 | 9.7 | 0.00 | 0.00 | 0.00 | 99 | 1026.5 |
| 20260507162527 | 18 | 354 | 0.0 | 4.8 | 0.00 | 0.00 | 0.00 | 99 | 1026.4 |
| 20260507162024 | 18 | 81 | 4.8 | 11.3 | 0.00 | 0.00 | 0.00 | 99 | 1026.1 |
| 20260507161520 | 18 | 90 | 0.0 | 6.4 | 0.00 | 0.00 | 0.00 | 99 | 1026.4 |
| 20260507161017 | 18 | 105 | 1.6 | 8.0 | 0.00 | 0.00 | 0.00 | 99 | 1026.4 |
| 20260507160513 | 18 | 15 | 4.8 | 6.4 | 0.00 | 0.00 | 0.00 | 99 | 1026.5 |
| 20260507160010 | 18 | 125 | 3.2 | 4.8 | 0.00 | 0.00 | 0.00 | 99 | 1026.6 |
| 20260507155505 | 18 | 109 | 1.6 | 9.7 | 0.00 | 0.00 | 0.00 | 99 | 1026.7 |
| 20260507155003 | 17 | 79 | 0.0 | 6.4 | 0.00 | 0.00 | 0.00 | 99 | 1026.5 |
| 20260507154459 | 17 | 0 | 0.0 | 6.4 | 0.00 | 0.00 | 0.00 | 99 | 1026.9 |
| 20260507153956 | 17 | 72 | 0.0 | 8.0 | 0.00 | 0.00 | 0.00 | 99 | 1026.5 |
| 20260507153453 | 17 | 59 | 4.8 | 4.8 | 0.00 | 0.00 | 0.00 | 99 | 1026.8 |
| 20260507152949 | 16 | 14 | 8.0 | 9.7 | 0.00 | 0.00 | 0.00 | 99 | 1026.6 |
| 20260507152445 | 16 | 66 | 0.0 | 11.3 | 0.00 | 0.00 | 0.00 | 99 | 1026.7 |
| 20260507151941 | 17 | 29 | 1.6 | 4.8 | 0.00 | 0.00 | 0.00 | 99 | 1026.8 |
| 20260507151438 | 16 | 42 | 4.8 | 8.0 | 0.00 | 0.00 | 0.00 | 99 | 1026.9 |
| 20260507150935 | 16 | 75 | 0.0 | 6.4 | 0.00 | 0.00 | 0.00 | 99 | 1027.0 |
| 20260507150432 | 16 | 50 | 4.8 | 9.7 | 0.00 | 0.00 | 0.00 | 99 | 1027.1 |
| 20260507145928 | 16 | 317 | 6.4 | 11.3 | 0.00 | 0.00 | 0.00 | 99 | 1027.0 |
| 20260507145424 | 16 | 57 | 3.2 | 8.0 | 0.00 | 0.00 | 0.00 | 99 | 1026.9 |
| 20260507144921 | 17 | 0 | 4.8 | 12.9 | 0.00 | 0.00 | 0.00 | 99 | 1026.8 |
| 20260507144418 | 17 | 77 | 1.6 | 4.8 | 0.00 | 0.00 | 0.00 | 99 | 1027.2 |
| 20260507143915 | 17 | 84 | 3.2 | 6.4 | 0.00 | 0.00 | 0.00 | 99 | 1027.2 |
| 20260507143413 | 16 | 57 | 6.4 | 11.3 | 0.00 | 0.00 | 0.00 | 99 | 1027.1 |
| 20260507142909 | 16 | 75 | 1.6 | 4.8 | 0.00 | 0.00 | 0.00 | 99 | 1027.1 |
| 20260507142404 | 16 | 90 | 0.0 | 8.0 | 0.00 | 0.00 | 0.00 | 99 | 1027.2 |
| 20260507141902 | 15 | 99 | 3.2 | 6.4 | 0.00 | 0.00 | 0.00 | 99 | 1027.2 |
| 20260507141358 | 15 | 22 | 6.4 | 8.0 | 0.00 | 0.00 | 0.00 | 99 | 1027.4 |
| 20260507140855 | 15 | 34 | 0.0 | 8.0 | 0.00 | 0.00 | 0.00 | 99 | 1027.4 |
| 20260507140351 | 15 | 114 | 1.6 | 4.8 | 0.00 | 0.00 | 0.00 | 99 | 1027.4 |
| 20260507135849 | 15 | 78 | 3.2 | 6.4 | 0.00 | 0.00 | 0.00 | 99 | 1027.4 |
| 20260507135346 | 14 | 71 | 3.2 | 3.2 | 0.00 | 0.00 | 0.00 | 99 | 1027.3 |
| 20260507134843 | 14 | 0 | 3.2 | 4.8 | 0.00 | 0.00 | 0.00 | 99 | 1027.4 |
| 20260507134339 | 14 | 337 | 4.8 | 4.8 | 0.00 | 0.00 | 0.00 | 99 | 1027.4 |
| 20260507133835 | 13 | 297 | 1.6 | 6.4 | 0.00 | 0.00 | 0.00 | 99 | 1027.6 |
| 20260507133331 | 13 | 291 | 0.0 | 4.8 | 0.00 | 0.00 | 0.00 | 99 | 1027.5 |
| 20260507132830 | 13 | 337 | 4.8 | 6.4 | 0.00 | 0.00 | 0.00 | 99 | 1027.5 |
| 20260507132326 | 13 | 354 | 1.6 | 4.8 | 0.00 | 0.00 | 0.00 | 99 | 1027.4 |
| 20260507131823 | 13 | 352 | 0.0 | 4.8 | 0.00 | 0.00 | 0.00 | 99 | 1027.4 |
| 20260507131320 | 13 | 0 | 0.0 | 4.8 | 0.00 | 0.00 | 0.00 | 99 | 1027.5 |
| 20260507130817 | 13 | 289 | 4.8 | 4.8 | 0.00 | 0.00 | 0.00 | 99 | 1027.6 |
| 20260507130314 | 12 | 246 | 3.2 | 6.4 | 0.00 | 0.00 | 0.00 | 99 | 1027.3 |
| 20260507125813 | 12 | 32 | 4.8 | 9.7 | 0.00 | 0.00 | 0.00 | 99 | 1027.2 |
| 20260507125310 | 12 | 355 | 1.6 | 6.4 | 0.00 | 0.00 | 0.00 | 99 | 1027.3 |
| 20260507124807 | 12 | 15 | 1.6 | 3.2 | 0.00 | 0.00 | 0.00 | 99 | 1026.9 |
| 20260507124303 | 12 | 294 | 1.6 | 4.8 | 0.00 | 0.00 | 0.00 | 99 | 1027.3 |
| 20260507123802 | 12 | 342 | 0.0 | 3.2 | 0.00 | 0.00 | 0.00 | 99 | 1027.2 |
| 20260507123259 | 11 | 295 | 3.2 | 3.2 | 0.00 | 0.00 | 0.00 | 99 | 1027.2 |
| 20260507122754 | 11 | 279 | 0.0 | 3.2 | 0.00 | 0.00 | 0.00 | 99 | 1027.2 |
| 20260507122250 | 11 | 270 | 0.0 | 1.6 | 0.00 | 0.00 | 0.00 | 99 | 1027.1 |
| 20260507121746 | 11 | 270 | 0.0 | 0.0 | 0.00 | 0.00 | 0.00 | 99 | 1027.1 |
| 20260507121242 | 10 | 261 | 0.0 | 0.0 | 0.00 | 0.00 | 0.00 | 99 | 1026.9 |
| 20260507120738 | 10 | 261 | 0.0 | 0.0 | 0.00 | 0.00 | 0.00 | 99 | 1027.0 |
| 20260507120235 | 10 | 261 | 0.0 | 0.0 | 0.00 | 0.00 | 0.00 | 99 | 1026.9 |
| 20260507115731 | 10 | 261 | 0.0 | 0.0 | 0.00 | 0.00 | 0.00 | 99 | 1026.6 |
| 20260507115228 | 10 | 261 | 0.0 | 0.0 | 0.00 | 0.00 | 0.00 | 99 | 1026.8 |
| 20260507114723 | 10 | 261 | 0.0 | 1.6 | 0.00 | 0.00 | 0.00 | 99 | 1026.6 |
| 20260507114221 | 10 | 286 | 0.0 | 0.0 | 0.00 | 0.00 | 0.00 | 99 | 1026.6 |
| 20260507113718 | 10 | 279 | 0.0 | 1.6 | 0.00 | 0.00 | 0.00 | 99 | 1026.3 |
| 20260507113215 | 11 | 294 | 0.0 | 3.2 | 0.00 | 0.00 | 0.00 | 99 | 1026.6 |
| 20260507112713 | 10 | 278 | 0.0 | 0.0 | 0.00 | 0.00 | 0.00 | 99 | 1026.4 |
| 20260507112209 | 11 | 257 | 1.6 | 4.8 | 0.00 | 0.00 | 0.00 | 99 | 1026.3 |
| 20260507111707 | 11 | 217 | 0.0 | 3.2 | 0.00 | 0.00 | 0.00 | 99 | 1026.2 |
| 20260507111204 | 11 | 278 | 0.0 | 4.8 | 0.00 | 0.00 | 0.00 | 99 | 1026.1 |
| 20260507110659 | 10 | 291 | 0.0 | 3.2 | 0.00 | 0.00 | 0.00 | 99 | 1026.0 |
| 20260507110156 | 10 | 340 | 0.0 | 3.2 | 0.00 | 0.00 | 0.00 | 99 | 1026.0 |
| 20260507105653 | 10 | 297 | 0.0 | 1.6 | 0.00 | 0.00 | 0.00 | 99 | 1026.0 |
| 20260507105149 | 10 | 331 | 0.0 | 0.0 | 0.00 | 0.00 | 0.00 | 99 | 1025.8 |
| 20260507104647 | 10 | 279 | 0.0 | 0.0 | 0.00 | 0.00 | 0.00 | 99 | 1025.7 |
| 20260507104143 | 10 | 345 | 0.0 | 0.0 | 0.00 | 0.00 | 0.00 | 99 | 1025.5 |
| 20260507103639 | 10 | 352 | 0.0 | 0.0 | 0.00 | 0.00 | 0.00 | 99 | 1025.5 |
| 20260507103136 | 10 | 279 | 0.0 | 0.0 | 0.00 | 0.00 | 0.00 | 99 | 1025.4 |
| 20260507102632 | 10 | 279 | 0.0 | 0.0 | 0.00 | 0.00 | 0.00 | 99 | 1025.4 |
| 20260507102128 | 10 | 90 | 0.0 | 0.0 | 0.00 | 0.00 | 0.00 | 99 | 1025.0 |
| 20260507101624 | 11 | 90 | 0.0 | 0.0 | 0.00 | 0.00 | 0.00 | 99 | 1025.4 |
| 20260507101120 | 11 | 90 | 0.0 | 0.0 | 0.00 | 0.00 | 0.00 | 99 | 1025.1 |
| 20260507100618 | 11 | 90 | 0.0 | 0.0 | 0.00 | 0.00 | 0.00 | 99 | 1025.1 |
| 20260507100116 | 11 | 90 | 0.0 | 0.0 | 0.00 | 0.00 | 0.00 | 99 | 1024.9 |
| 20260507095614 | 11 | 306 | 1.6 | 3.2 | 0.00 | 0.00 | 0.00 | 99 | 1024.8 |
| 20260507095110 | 11 | 345 | 0.0 | 1.6 | 0.00 | 0.00 | 0.00 | 99 | 1025.1 |
| 20260507094606 | 11 | 345 | 0.0 | 1.6 | 0.00 | 0.00 | 0.00 | 99 | 1024.9 |
| 20260507094103 | 11 | 7 | 0.0 | 1.6 | 0.00 | 0.00 | 0.00 | 99 | 1024.9 |
| 20260507093601 | 11 | 82 | 0.0 | 1.6 | 0.00 | 0.00 | 0.00 | 99 | 1024.8 |
| 20260507093059 | 11 | 0 | 0.0 | 3.2 | 0.00 | 0.00 | 0.00 | 99 | 1024.6 |
| 20260507092555 | 11 | 8 | 0.0 | 1.6 | 0.00 | 0.00 | 0.00 | 99 | 1024.8 |
| 20260507092052 | 11 | 74 | 0.0 | 3.2 | 0.00 | 0.00 | 0.00 | 99 | 1024.8 |
| 20260507091549 | 11 | 7 | 0.0 | 1.6 | 0.00 | 0.00 | 0.00 | 99 | 1024.9 |
| 20260507091045 | 11 | 29 | 1.6 | 3.2 | 0.00 | 0.00 | 0.00 | 99 | 1024.8 |
| 20260507090541 | 11 | 48 | 3.2 | 4.8 | 0.00 | 0.00 | 0.00 | 99 | 1024.6 |
| 20260507090038 | 11 | 15 | 1.6 | 3.2 | 0.00 | 0.00 | 0.00 | 99 | 1024.9 |
| 20260507085535 | 11 | 346 | 0.0 | 3.2 | 0.00 | 0.00 | 0.00 | 99 | 1024.7 |
| 20260507085032 | 11 | 35 | 0.0 | 3.2 | 0.00 | 0.00 | 0.00 | 99 | 1024.4 |
| 20260507084528 | 11 | 0 | 0.0 | 3.2 | 0.00 | 0.00 | 0.00 | 99 | 1024.5 |
| 20260507084026 | 11 | 60 | 0.0 | 4.8 | 0.00 | 0.00 | 0.00 | 99 | 1024.5 |
| 20260507083521 | 11 | 23 | 0.0 | 0.0 | 0.00 | 0.00 | 0.00 | 99 | 1024.5 |
| 20260507083019 | 12 | 49 | 0.0 | 4.8 | 0.00 | 0.00 | 0.00 | 99 | 1024.6 |
| 20260507082515 | 12 | 45 | 4.8 | 4.8 | 0.00 | 0.00 | 0.00 | 99 | 1024.7 |
| 20260507082011 | 12 | 45 | 4.8 | 4.8 | 0.00 | 0.00 | 0.00 | 99 | 1024.7 |
| 20260507081508 | 12 | 63 | 0.0 | 6.4 | 0.00 | 0.00 | 0.00 | 99 | 1024.5 |
| 20260507081005 | 11 | 85 | 3.2 | 3.2 | 0.00 | 0.00 | 0.00 | 99 | 1024.5 |
| 20260507080500 | 12 | 80 | 0.0 | 4.8 | 0.00 | 0.00 | 0.00 | 99 | 1024.4 |
| 20260507075956 | 12 | 71 | 1.6 | 3.2 | 0.00 | 0.00 | 0.00 | 99 | 1024.4 |
| 20260507075452 | 12 | 47 | 4.8 | 4.8 | 0.00 | 0.00 | 0.00 | 99 | 1024.5 |
| 20260507074949 | 12 | 14 | 0.0 | 4.8 | 0.00 | 0.00 | 0.00 | 99 | 1024.4 |
| 20260507074446 | 12 | 11 | 1.6 | 4.8 | 0.00 | 0.00 | 0.00 | 99 | 1024.3 |
| 20260507073944 | 12 | 82 | 1.6 | 6.4 | 0.00 | 0.00 | 0.00 | 99 | 1024.1 |
| 20260507073440 | 12 | 45 | 4.8 | 8.0 | 0.00 | 0.00 | 0.00 | 99 | 1024.0 |
| 20260507072937 | 12 | 21 | 6.4 | 6.4 | 0.00 | 0.00 | 0.00 | 99 | 1024.4 |
| 20260507072434 | 12 | 69 | 1.6 | 8.0 | 0.00 | 0.00 | 0.00 | 99 | 1024.3 |
| 20260507071932 | 12 | 90 | 0.0 | 4.8 | 0.00 | 0.00 | 0.00 | 99 | 1024.4 |
| 20260507071429 | 12 | 14 | 0.0 | 4.8 | 0.00 | 0.00 | 0.00 | 99 | 1024.5 |
| 20260507070925 | 12 | 41 | 3.2 | 3.2 | 0.00 | 0.00 | 0.00 | 99 | 1024.5 |
| 20260507070423 | 12 | 18 | 1.6 | 3.2 | 0.00 | 0.00 | 0.00 | 99 | 1024.6 |
| 20260507065919 | 12 | 90 | 0.0 | 4.8 | 0.00 | 0.00 | 0.00 | 99 | 1024.3 |
| 20260507065416 | 12 | 98 | 0.0 | 6.4 | 0.00 | 0.00 | 0.00 | 99 | 1024.4 |
| 20260507064913 | 12 | 65 | 3.2 | 6.4 | 0.00 | 0.00 | 0.00 | 99 | 1024.4 |
| 20260507064411 | 12 | 119 | 0.0 | 6.4 | 0.00 | 0.00 | 0.00 | 99 | 1024.2 |
| 20260507063909 | 12 | 52 | 4.8 | 6.4 | 0.00 | 0.00 | 0.00 | 99 | 1024.2 |
| 20260507063406 | 12 | 180 | 0.0 | 4.8 | 0.00 | 0.00 | 0.00 | 99 | 1024.1 |
| 20260507062903 | 12 | 81 | 0.0 | 4.8 | 0.00 | 0.00 | 0.00 | 99 | 1024.3 |
| 20260507062359 | 12 | 41 | 6.4 | 8.0 | 0.00 | 0.00 | 0.00 | 99 | 1024.1 |
| 20260507061857 | 12 | 18 | 3.2 | 4.8 | 0.00 | 0.00 | 0.00 | 99 | 1023.9 |
| 20260507061355 | 12 | 105 | 0.0 | 3.2 | 0.00 | 0.00 | 0.00 | 99 | 1023.9 |
| 20260507060853 | 12 | 144 | 0.0 | 6.4 | 0.00 | 0.00 | 0.00 | 99 | 1024.0 |
| 20260507060349 | 13 | 90 | 0.0 | 3.2 | 0.00 | 0.00 | 0.00 | 99 | 1023.9 |
| 20260507055846 | 13 | 90 | 1.6 | 6.4 | 0.00 | 0.00 | 0.00 | 99 | 1024.0 |
| 20260507055341 | 13 | 140 | 3.2 | 3.2 | 0.00 | 0.00 | 0.00 | 99 | 1023.8 |
| 20260507054839 | 13 | 140 | 0.0 | 3.2 | 0.00 | 0.00 | 0.00 | 99 | 1023.8 |
| 20260507054335 | 13 | 49 | 3.2 | 3.2 | 0.00 | 0.00 | 0.00 | 99 | 1023.9 |
| 20260507053832 | 13 | 56 | 3.2 | 3.2 | 0.00 | 0.00 | 0.00 | 99 | 1023.8 |
| 20260507053329 | 13 | 67 | 3.2 | 3.2 | 0.00 | 0.00 | 0.00 | 99 | 1023.8 |
| 20260507052828 | 13 | 100 | 3.2 | 3.2 | 0.00 | 0.00 | 0.00 | 99 | 1024.0 |
| 20260507052324 | 13 | 99 | 0.0 | 1.6 | 0.00 | 0.00 | 0.00 | 99 | 1023.9 |
| 20260507051822 | 13 | 97 | 0.0 | 3.2 | 0.00 | 0.00 | 0.00 | 99 | 1024.0 |
| 20260507051320 | 13 | 111 | 0.0 | 1.6 | 0.00 | 0.00 | 0.00 | 99 | 1023.9 |
| 20260507050816 | 13 | 10 | 4.8 | 6.4 | 0.00 | 0.00 | 0.00 | 99 | 1023.9 |
| 20260507050313 | 13 | 106 | 1.6 | 6.4 | 0.00 | 0.00 | 0.00 | 99 | 1024.3 |
| 20260507045810 | 13 | 90 | 1.6 | 6.4 | 0.00 | 0.00 | 0.00 | 99 | 1024.1 |
| 20260507045307 | 13 | 90 | 0.0 | 4.8 | 0.00 | 0.00 | 0.00 | 99 | 1023.9 |
| 20260507044803 | 14 | 90 | 0.0 | 1.6 | 0.00 | 0.00 | 0.00 | 99 | 1024.1 |
| 20260507044300 | 13 | 8 | 0.0 | 3.2 | 0.00 | 0.00 | 0.00 | 99 | 1024.1 |